Weather in Petrovskoye

Russia / Saint-Petersburg and Leningrad Oblast     60°38′47″N   30°09′53″E
temp.,
°C
wind,
m/s
gust,
m/s
humid.,
%
clouds,
%
prec.,
mm/h
press.,
hPa
HPBL,
m
18 april, sun
sun1800:00+4ene398239 0.0 1031178
03:00+2ene25824 0.0 103186
06:00+1ne26895 0.0 1031108
09:00+6ene36710 0.0 1032276
12:00+9ene36581 0.0 1031553
15:00+10ene47530 0.0 1031810
18:00+10ene37565 0.0 1031569
21:00+5ene311785 0.0 1032262
19 april, mon
mon1900:00+4ene39885 0.0 1032241
03:00+2ene37955 0.0 1033182
06:00+1ene27954 0.0 1032153
09:00+5e36640 0.0 1033341
12:00+6e46530 0.0 1033543
15:00+8e46450 0.0 1032808
18:00+7ene37460 0.0 1031563
21:00+3ne29690 0.0 1030188
20 april, tue
tue2000:00+2e298265 0.0 1030188
03:00+1e2687100 0.0 1029120
06:000e2490100 0.0 102888
09:00+5e35640 0.0 1027340
12:00+7e47534 0.0 1026699
15:00+8e47456 0.0 10241103
18:00+6ene3749100 0.0 1022388
21:00+4e2868100 0.0 1020176
21 april, wed
wed2100:00+3ese288239 0.0 1018174
03:00+2ese2798100 0.0 1016189
06:00+3ene2692100 0.0 1014271
09:00+3ene4895100 0.2 1010602
12:00+3ne31094100 1.2 1008596
15:00+2ene3797100 2.1 1006334
18:00+2ne2599100 0.9 1004219
21:00+1nnw2499100 2.3 1004154
22 april, thu
thu2200:00+1nw2498100 0.8 1004165
03:00+1wnw2698100 0.9 1004491
06:00+1w3797100 0.1 1005367
09:00+3wsw3796100 0.1 1007391
12:00+7w367472 0.1 10091025
15:00+10wsw575878 0.3 10111548
18:00+9sw47605 0.1 1012933
21:00+4sw267858 0.1 101491